Regional Weather Roundup
Issued by NWS

Home | Current Version | Previous Version | Graphics & Text | Print | Product List | Glossary On
Versions: 1 2 3 4 5 6 7 8 9 10 11 12 13 14 15 16 17 18 19 20 21 22 23 24 25 26 27 28 29 30 31 32 33 34 35 36 37 38 39 40 41 42 43 44 45 46 47 48 49 50
000
ASUS43 KLOT 310400
RWRIL

ILLINOIS REGIONAL WEATHER ROUNDUP
NATIONAL WEATHER SERVICE CHICAGO/ROMEOVILLE IL
1100 PM CDT THU JUL 30 2015

NOTE: "FAIR" INDICATES FEW OR NO CLOUDS BELOW 12,000 FEET WITH NO
SIGNIFICANT WEATHER AND/OR OBSTRUCTIONS TO VISIBILITY.

* THESE STATIONS ARE NOT UNDER NWS QUALITY CONTROL. THEY ALSO MAY NOT
  REPORT WEATHER SUCH AS PRECIPITATION OR FOG.

ILZ001-002-007-009-015-016-024-310500-
NORTHWEST ILLINOIS

CITY           SKY/WX    TMP DP  RH WIND       PRES   REMARKS
MOLINE         CLEAR     71  65  81 SW3       30.07R
STERLING*      CLEAR     70  63  78 W6        30.03S
$$

ILZ003-004-008-010-011-017-018-310500-
NORTH CENTRAL ILLINOIS

CITY           SKY/WX    TMP DP  RH WIND       PRES   REMARKS
ROCKFORD       CLEAR     71  58  63 W8        30.05S
$$

ILZ005-006-012>014-019>023-310500-
NORTHEAST ILLINOIS

CITY           SKY/WX    TMP DP  RH WIND       PRES   REMARKS
CHICAGO-OHARE  CLEAR     76  60  57 W8        30.01S
CHICAGO-MIDWAY CLEAR     80  60  50 W10       30.01S HX  81
AURORA         CLEAR     66  61  84 W7        30.04S
WAUKEGAN       CLEAR     73  58  59 VRB3      30.00R
DUPAGE AIRPORT CLEAR     72  61  68 W7        30.02S
WHEELING       CLEAR     77  58  51 W9        30.02R
NORTHERLY ISL    N/A     79  59  50 W5          N/A  HX  80
$$

LMZ740>746-310500-
SOUTHERN LAKE MICHIGAN

STATION/POSITION SKY/WX   TEMP    WIND        PRES    VSBY  WAVE
                          AIR SEA DIR/SP/G                  HT/PER
                          (F)     (DEG/KT/KT) (MB)    (MI)  (FT/S)
HARRISON CRIB              81     260/ 14/ 17   N/A
BURNHAM HARBOR             81     230/  7/ 10   N/A
CALUMET HARBOR             80     230/  4/  7   N/A
BURNS HARBOR               80     230/  9/ 11 1016.6R
MICHIGAN CITY              76     190/  7/  8   N/A
MICHIGAN CITY 6N           77 75  260/  6/  8   N/A           1
ST. JOSEPH                 76 74  260/  8/ 10   N/A           1/ 2
$$

ILZ025>027-034>036-040-047-049-050-058-095>099-310500-
WEST-CENTRAL ILLINOIS

CITY           SKY/WX    TMP DP  RH WIND       PRES   REMARKS
QUINCY         CLEAR     72  65  78 SW6       30.11S
$$

ILZ028>032-037-038-041>044-048-051>054-059>061-310500-
CENTRAL ILLINOIS

CITY           SKY/WX    TMP DP  RH WIND       PRES   REMARKS
DECATUR        CLEAR     77  64  64 W8        30.09S
PEORIA         CLEAR     75  65  70 W3        30.08R
SPRINGFIELD    CLEAR     71  66  84 W6        30.10R
TAYLORVILLE    NOT AVBL
$$

ILZ033-039-045-046-055>057-062-063-310500-
EAST-CENTRAL ILLINOIS

CITY           SKY/WX    TMP DP  RH WIND       PRES   REMARKS
CHAMPAIGN      CLEAR     68  65  90 W5        30.08S
MATTOON        CLEAR     73  63  70 W5        30.08S
$$

ILZ079-100>102-310500-
SOUTHWEST ILLINOIS

CITY           SKY/WX    TMP DP  RH WIND       PRES   REMARKS
BELLEVILLE     CLEAR     72  68  88 CALM      30.10S
CAHOKIA*       CLEAR     73  67  81 CALM      30.11S
SPARTA*        CLEAR     74  66  77 CALM      30.13R
$$

ILZ064>066-069>071-074>076-080>082-084>086-088>090-092>094-310500-
SOUTH-CENTRAL ILLINOIS

CITY           SKY/WX    TMP DP  RH WIND       PRES   REMARKS
CARBONDALE     CLEAR     71  68  90 CALM      30.11S
MT. VERNON     CLEAR     68  63  83 CALM      30.12S
$$

ILZ067-068-072-073-078-083-087-091-310500-
SOUTHEAST ILLINOIS

CITY           SKY/WX    TMP DP  RH WIND       PRES   REMARKS
LAWRENCEVILLE  PTCLDY    73  66  78 W6        30.08F
$$

ABBREVIATIONS USED IN REMARKS
   TC - TEMPERATURE IN CELSIUS
  WCI - WIND CHILL INDEX
   HX - HEAT INDEX
  VSB - VISIBILITY
$$



USA.gov is the U.S. government's official web portal to all federal, state and local government web resources and services.